{"data":{"norad_id":59755,"intl_designator":"2024-091C","name":"STARLINK-11132 [DTC]","alt_names":[],"object_type":"PAYLOAD","status":"ACTIVE","operator":null,"country":"US","launch_date":"2024-05-14","launch_site_code":"AFWTR","launch_vehicle":null,"mission":null,"orbit_class":"UNKNOWN","rcs_meters":null,"size_class":null,"mass_kg":null,"dimensions":null,"purposes":["comms"],"wikipedia_slug":null,"has_3d_model":false,"image_url":null,"decayed_at":null,"tle_current":{"epoch":"2026-09-21T10:19:13.019520Z","epoch_age_seconds":90999,"freshness":"FRESH","line1":"1 59755U 24091C   26264.43001180 -.00000205  00000+0  31683-5 0  9997","line2":"2 59755  53.1590 321.5495 0001177  64.1339 295.9800 15.69706481136254","mean_motion":15.69706481,"eccentricity":0.0001177,"inclination_deg":53.159,"raan_deg":321.5495,"arg_perigee_deg":64.1339,"mean_anomaly_deg":295.98,"bstar":3.1683e-6,"rev_number":13625,"period_min":91.736895873847,"perigee_km":358.94377272092,"apogee_km":360.52986821826,"semimajor_km":6737.8738204696,"source":"CELESTRAK","updated_at":"2026-09-22T09:00:49.067054Z"}}}